This is the latest recevied weather packets stored in our database for station/object KG6QHD-13. If no packets are shown the sender has not sent any weather packets the latest 10 day(s).
| Time | Temp. | Humidity | Pressure | Rain* | Wind** | Luminosity | Snow |
|---|---|---|---|---|---|---|---|
| 1778121348 | -1.67° C | 83% | 1020.1 hPa | 0 mm | - | 0 W/m² | - |
| 1778121054 | -1.67° C | 83% | 1020 hPa | 0 mm | - | 0 W/m² | - |
| 1778118645 | -0.56° C | 81% | 1019.9 hPa | 0 mm | - | 7 W/m² | - |
| 1778117145 | 0° C | 80% | 1019.9 hPa | 0 mm | - | 16 W/m² | - |
| 1778113547 | 0° C | 80% | 1019.6 hPa | 0.25 mm | - | 37 W/m² | - |
| 1778112645 | 0° C | 80% | 1019.5 hPa | 0.25 mm | - | 56 W/m² | - |
| 1778109644 | 0° C | 81% | 1019.7 hPa | 0.25 mm | - | 179 W/m² | - |
| 1778109362 | 0° C | 82% | 1019.6 hPa | 0.25 mm | - | 246 W/m² | - |
| 1778109045 | 0° C | 81% | 1019.6 hPa | 0.25 mm | - | 199 W/m² | - |
| 1778108745 | -0.56° C | 81% | 1019.6 hPa | 0.25 mm | - | 260 W/m² | - |
| 1778107844 | -0.56° C | 82% | 1019.6 hPa | 0 mm | - | 207 W/m² | - |
| 1778106655 | -0.56° C | 82% | 1019.5 hPa | 0 mm | - | 260 W/m² | - |
| 1778098554 | -0.56° C | 82% | 1019.9 hPa | 0 mm | - | 429 W/m² | - |
| 1778097345 | -1.11° C | 83% | 1019.8 hPa | 0 mm | - | 327 W/m² | - |
| 1778095245 | -0.56° C | 82% | 1019.7 hPa | 0 mm | - | 441 W/m² | - |
| 1778094949 | -0.56° C | 81% | 1019.8 hPa | 0 mm | - | 522 W/m² | - |
| 1778093745 | -0.56° C | 81% | 1019.7 hPa | 0 mm | - | 911 W/m² | - |
| 1778091945 | -0.56° C | 88% | 1019.9 hPa | 0 mm | - | 327 W/m² | - |
| 1778091644 | -0.56° C | 89% | 1020.1 hPa | 0.25 mm | - | 193 W/m² | - |
| 1778089549 | -1.67° C | 89% | 1020 hPa | 0.25 mm | - | 156 W/m² | - |
| 1778088049 | -1.67° C | 89% | 1020 hPa | 0 mm | - | 139 W/m² | - |
| 1778087448 | -1.67° C | 89% | 1019.8 hPa | 0 mm | - | 135 W/m² | - |
| 1778086548 | -1.67° C | 88% | 1019.3 hPa | 0 mm | - | 121 W/m² | - |
| 1778084747 | -2.22° C | 89% | 1019.5 hPa | 0 mm | - | 69 W/m² | - |
| 1778082648 | -2.78° C | 90% | 1019.1 hPa | 0 mm | - | 72 W/m² | - |
* Rain latest hour (hover to see other rain measurements)
** Current wind speed in m/s (hover to see current wind gust speed)